K4AVM-13 Weather Reports


time (UTC)temp
F
wind
direction
speed
knots
gust
knots
rain 1hr
in
rain 24hr
in
rain mn
in
humidity
%
barometer
mb
20260510043513 66 164 0.0 0.0 0.00 0.00 0.00 80 1012.6
20260510043009 66 160 1.7 1.7 0.00 0.00 0.00 81 1012.5
20260510042503 65 158 0.0 0.0 0.00 0.00 0.00 81 1012.4
20260510041958 65 134 0.9 1.7 0.00 0.00 0.00 81 1012.6
20260510041455 65 149 0.0 0.0 0.00 0.00 0.00 81 1012.7
20260510040954 65 151 0.0 0.9 0.00 0.00 0.00 81 1012.4
20260510040450 65 151 0.0 0.0 0.00 0.00 0.00 80 1012.4
20260510035946 65 154 1.7 6.1 0.00 0.00 0.00 80 1012.6
20260510035442 64 161 0.0 0.9 0.00 0.00 0.00 80 1012.5
20260510034937 64 165 0.0 0.9 0.00 0.00 0.00 81 1012.4
20260510034436 63 136 0.0 0.0 0.00 0.00 0.00 81 1012.4
20260510033932 63 154 0.0 0.0 0.00 0.00 0.00 81 1012.3
20260510033428 63 144 0.0 0.0 0.00 0.00 0.00 81 1012.4
20260510032925 63 141 0.0 0.0 0.00 0.00 0.00 81 1012.2
20260510032421 63 145 0.0 0.0 0.00 0.00 0.00 81 1012.2
20260510031916 63 151 0.0 0.0 0.00 0.00 0.00 80 1012.3
20260510031413 64 145 0.0 0.0 0.00 0.00 0.00 80 1012.2
20260510030912 64 151 0.0 0.0 0.00 0.00 0.00 79 1012.3
20260510030409 64 151 0.0 0.0 0.00 0.00 0.00 78 1012.3
20260510025907 64 154 0.0 1.7 0.00 0.00 0.00 77 1012.2
20260510025404 65 151 0.0 0.0 0.00 0.00 0.00 77 1011.9
20260510024901 65 151 0.0 0.0 0.00 0.00 0.00 76 1012.2
20260510024357 65 151 0.0 0.0 0.00 0.00 0.00 77 1012.1
20260510023853 65 154 0.0 0.0 0.00 0.00 0.00 76 1012.0
20260510023350 65 123 0.0 0.0 0.00 0.00 0.00 77 1012.0
20260510022848 64 160 0.0 0.0 0.00 0.00 0.00 77 1011.8
20260510022347 65 150 0.0 0.0 0.00 0.00 0.00 76 1012.0
20260510021845 65 161 0.0 0.0 0.00 0.00 0.00 76 1011.9
20260510021344 64 137 0.0 0.0 0.00 0.00 0.00 76 1011.8
20260510020840 64 141 0.0 0.0 0.00 0.00 0.00 76 1011.6
20260510020335 64 145 0.0 0.0 0.00 0.00 0.00 76 1011.7
20260510015831 64 151 0.0 0.0 0.00 0.00 0.00 75 1011.4
20260510015327 65 151 0.0 0.0 0.00 0.00 0.00 75 1011.3
20260510014822 65 146 0.0 0.0 0.00 0.00 0.00 74 1011.3
20260510014320 65 141 0.0 0.0 0.00 0.00 0.00 74 1011.2
20260510013816 65 151 0.0 0.0 0.00 0.00 0.00 73 1011.2
20260510013311 66 151 0.0 0.0 0.00 0.00 0.00 72 1011.5
20260510012806 66 151 0.0 0.0 0.00 0.00 0.00 72 1011.5
20260510012300 66 152 0.0 0.0 0.00 0.00 0.00 71 1011.2
20260510011755 66 150 0.0 0.0 0.00 0.00 0.00 71 1011.0
20260510011251 66 151 0.0 0.0 0.00 0.00 0.00 71 1011.2
20260510010748 66 144 0.0 0.0 0.00 0.00 0.00 70 1011.0
20260510010244 66 144 0.0 0.0 0.00 0.00 0.00 70 1011.0
20260510005742 66 149 0.0 0.0 0.00 0.00 0.00 69 1010.9
20260510005238 66 149 0.0 0.0 0.00 0.00 0.00 68 1011.0
20260510004736 67 148 0.0 0.0 0.00 0.00 0.00 67 1010.9
20260510004233 67 148 0.0 0.0 0.00 0.00 0.00 67 1010.6
20260510003731 67 151 0.0 0.0 0.00 0.00 0.00 66 1010.8
20260510003227 68 153 0.0 0.0 0.00 0.00 0.00 65 1010.4
20260510002725 68 153 0.0 0.0 0.00 0.00 0.00 64 1010.5
20260510002223 69 154 0.0 0.0 0.00 0.00 0.00 62 1010.3
20260510001720 70 154 0.0 0.0 0.00 0.00 0.00 61 1010.4
20260510001219 70 149 0.0 0.0 0.00 0.00 0.00 60 1010.3
20260510000714 71 153 0.0 0.0 0.00 0.00 0.00 60 1010.0
20260510000212 71 152 0.0 0.0 0.00 0.00 0.00 58 1010.2
20260509235708 72 162 0.0 0.0 0.00 0.00 0.00 58 1010.1
20260509235204 72 131 0.0 0.9 0.00 0.00 0.00 55 1010.1
20260509234701 73 195 0.9 2.6 0.00 0.00 0.00 54 1010.0
20260509234158 73 162 0.9 0.9 0.00 0.00 0.00 54 1009.9
20260509233656 73 156 0.0 0.0 0.00 0.00 0.00 55 1010.0
20260509233153 73 158 0.0 0.9 0.00 0.00 0.00 55 1010.0
20260509232649 73 163 0.0 0.0 0.00 0.00 0.00 55 1010.0
20260509232146 73 157 0.0 0.9 0.00 0.00 0.00 55 1009.9
20260509231643 74 149 0.0 0.0 0.00 0.00 0.00 54 1010.1
20260509231140 74 154 0.0 0.0 0.00 0.00 0.00 52 1010.1
20260509230637 74 143 1.7 2.6 0.00 0.00 0.00 51 1010.1
20260509230134 75 155 0.0 0.9 0.00 0.00 0.00 52 1010.0
20260509225630 75 164 0.0 1.7 0.00 0.00 0.00 51 1009.9
20260509225125 75 138 0.9 0.9 0.00 0.00 0.00 50 1010.1
20260509224621 75 160 0.0 0.9 0.00 0.00 0.00 51 1009.9
20260509224118 75 167 0.9 1.7 0.00 0.00 0.00 50 1009.8
20260509223615 75 160 0.9 2.6 0.00 0.00 0.00 50 1010.0
20260509223113 76 178 0.9 1.7 0.00 0.00 0.00 50 1009.7
20260509222608 76 150 0.0 0.9 0.00 0.00 0.00 50 1010.0
20260509222105 76 156 0.0 2.6 0.00 0.00 0.00 51 1010.0
20260509221600 77 152 0.0 0.9 0.00 0.00 0.00 50 1010.0
20260509221056 77 158 0.9 2.6 0.00 0.00 0.00 51 1010.1
20260509220552 76 179 0.9 0.9 0.00 0.00 0.00 50 1010.0
20260509220049 76 205 1.7 1.7 0.00 0.00 0.00 50 1009.9
20260509215544 76 165 0.0 0.9 0.00 0.00 0.00 52 1009.8
20260509215042 75 160 0.0 0.9 0.00 0.00 0.00 51 1009.8
20260509214539 76 131 0.9 3.5 0.00 0.00 0.00 50 1009.9
20260509214036 77 139 0.0 3.5 0.00 0.00 0.00 50 1009.7
20260509213532 77 162 0.9 3.5 0.00 0.00 0.00 49 1009.9
20260509213029 77 172 0.0 5.2 0.00 0.00 0.00 49 1009.9
20260509212526 78 167 4.3 6.1 0.00 0.00 0.00 47 1009.9
20260509212023 78 164 4.3 7.0 0.00 0.00 0.00 47 1009.8
20260509211518 78 181 1.7 5.2 0.00 0.00 0.00 47 1009.8
20260509211016 78 179 1.7 8.7 0.00 0.00 0.00 48 1009.8
20260509210512 78 108 0.9 2.6 0.00 0.00 0.00 48 1009.8
20260509210009 78 182 1.7 7.0 0.00 0.00 0.00 48 1009.9
20260509205503 79 156 0.9 0.9 0.00 0.00 0.00 49 1009.7
20260509204958 79 160 0.0 2.6 0.00 0.00 0.00 49 1009.6
20260509204455 78 181 0.9 2.6 0.00 0.00 0.00 47 1009.7
20260509203951 78 138 0.9 1.7 0.00 0.00 0.00 47 1009.6
20260509203447 78 160 4.3 7.0 0.00 0.00 0.00 45 1009.7
20260509202945 78 77 2.6 5.2 0.00 0.00 0.00 46 1009.7
20260509202441 78 122 0.9 1.7 0.00 0.00 0.00 45 1009.8
20260509201936 78 187 3.5 5.2 0.00 0.00 0.00 46 1009.7
20260509201426 77 163 0.9 3.5 0.00 0.00 0.00 46 1009.6
20260509200923 78 110 3.5 8.7 0.00 0.00 0.00 46 1009.8
20260509200423 79 163 0.0 3.5 0.00 0.00 0.00 46 1009.8
20260509195919 78 155 0.0 5.2 0.00 0.00 0.00 47 1010.0
20260509195415 75 186 1.7 7.8 0.00 0.00 0.00 48 1010.1
20260509194909 74 168 0.9 3.5 0.00 0.00 0.00 50 1010.2
20260509194405 74 209 1.7 2.6 0.00 0.00 0.00 50 1010.4
20260509193901 74 149 0.9 3.5 0.00 0.00 0.00 50 1010.3
20260509193356 74 201 1.7 2.6 0.00 0.00 0.00 50 1010.3
20260509192852 74 157 0.0 0.9 0.00 0.00 0.00 50 1010.3
20260509192348 75 181 2.6 5.2 0.00 0.00 0.00 49 1010.4
20260509191844 75 133 2.6 3.5 0.00 0.00 0.00 48 1010.3
20260509191340 77 158 0.9 0.9 0.00 0.00 0.00 49 1010.5
20260509190836 77 149 2.6 5.2 0.00 0.00 0.00 44 1010.4
20260509190333 77 165 0.9 2.6 0.00 0.00 0.00 47 1010.6
20260509185830 78 154 1.7 3.5 0.00 0.00 0.00 46 1010.5
20260509185327 79 227 1.7 2.6 0.00 0.00 0.00 45 1010.8
20260509184825 77 178 2.6 2.6 0.00 0.00 0.00 45 1011.0
20260509184321 77 181 1.7 2.6 0.00 0.00 0.00 47 1011.1
20260509183817 75 176 0.9 1.7 0.00 0.00 0.00 50 1011.1
20260509183307 76 148 2.6 3.5 0.00 0.00 0.00 47 1011.1
20260509182803 77 133 1.7 2.6 0.00 0.00 0.00 46 1011.2
20260509182300 77 130 0.9 3.5 0.00 0.00 0.00 47 1011.3
20260509181757 75 168 0.0 0.9 0.00 0.00 0.00 49 1011.4
20260509181255 75 183 1.7 5.2 0.00 0.00 0.00 47 1011.4
20260509180752 77 200 2.6 2.6 0.00 0.00 0.00 44 1011.6
20260509180248 77 200 1.7 5.2 0.00 0.00 0.00 45 1011.4
20260509175744 77 115 1.7 2.6 0.00 0.00 0.00 46 1011.6
20260509175241 77 148 1.7 3.5 0.00 0.00 0.00 45 1011.5
20260509174737 77 165 1.7 2.6 0.00 0.00 0.00 47 1011.7
20260509174233 77 180 0.9 2.6 0.00 0.00 0.00 47 1011.7
20260509173729 77 179 0.9 7.0 0.00 0.00 0.00 47 1011.7
20260509173225 77 62 2.6 6.1 0.00 0.00 0.00 47 1011.5
20260509172721 75 73 1.7 6.1 0.00 0.00 0.00 48 1011.7
20260509172217 77 138 1.7 6.1 0.00 0.00 0.00 48 1011.8
20260509171713 77 149 0.9 3.5 0.00 0.00 0.00 51 1012.0
20260509171210 75 192 0.9 2.6 0.00 0.00 0.00 51 1012.0
20260509170707 75 214 1.7 5.2 0.00 0.00 0.00 51 1012.0
20260509170202 75 244 1.7 3.5 0.00 0.00 0.00 51 1012.1
20260509165701 75 178 2.6 5.2 0.00 0.00 0.00 51 1012.2
20260509165156 74 201 1.7 2.6 0.00 0.00 0.00 52 1012.5
20260509164653 74 158 0.0 2.6 0.00 0.00 0.00 52 1012.6
20260509164148 73 165 0.9 5.2 0.00 0.00 0.00 54 1012.7
20260509163646 75 201 0.9 6.1 0.00 0.00 0.00 50 1012.5
20260509163142 74 108 1.7 2.6 0.00 0.00 0.00 51 1012.4
20260509162639 74 176 1.7 6.1 0.00 0.00 0.00 51 1012.3
20260509162135 75 189 0.0 3.5 0.00 0.00 0.00 49 1012.3
20260509161631 74 182 1.7 6.1 0.00 0.00 0.00 51 1012.4
20260509161126 73 166 1.7 3.5 0.00 0.00 0.00 50 1012.5
20260509160622 75 211 5.2 7.8 0.00 0.00 0.00 49 1012.5
20260509160118 74 157 1.7 6.1 0.00 0.00 0.00 51 1012.6
20260509155614 75 133 1.7 3.5 0.00 0.00 0.00 50 1012.5
20260509155111 74 206 1.7 5.2 0.00 0.00 0.00 48 1012.9
20260509154606 73 154 0.9 3.5 0.00 0.00 0.00 50 1013.1
20260509154104 73 194 4.3 7.0 0.00 0.00 0.00 50 1013.0
20260509153601 73 188 1.7 6.1 0.00 0.00 0.00 51 1013.1
20260509153058 73 142 0.9 5.2 0.00 0.00 0.00 53 1013.1
20260509152554 73 159 1.7 5.2 0.00 0.00 0.00 54 1013.0
20260509152051 72 133 2.6 3.5 0.00 0.00 0.00 55 1013.2
20260509151547 71 156 3.5 6.1 0.00 0.00 0.00 56 1013.4
20260509151045 72 179 1.7 6.1 0.00 0.00 0.00 56 1013.3
20260509150542 71 187 1.7 6.1 0.00 0.00 0.00 57 1013.3
20260509150035 72 170 0.9 5.2 0.00 0.00 0.00 58 1013.5
20260509145530 71 216 1.7 1.7 0.00 0.00 0.00 58 1013.6
20260509145026 71 145 0.9 7.0 0.00 0.00 0.00 58 1013.6
20260509144523 71 193 5.2 8.7 0.00 0.00 0.00 58 1013.8
20260509144020 70 160 0.9 5.2 0.00 0.00 0.00 60 1013.9
20260509143517 70 199 1.7 2.6 0.00 0.00 0.00 62 1014.0
20260509143015 69 149 0.0 2.6 0.00 0.00 0.00 63 1014.0
20260509142510 69 175 1.7 2.6 0.00 0.00 0.00 62 1014.1
20260509142006 69 163 0.0 2.6 0.00 0.00 0.00 65 1014.4
20260509141503 68 218 1.7 3.5 0.00 0.00 0.00 65 1014.1
20260509140959 68 147 0.9 1.7 0.00 0.00 0.00 67 1014.2
20260509140455 67 187 0.9 3.5 0.00 0.00 0.00 69 1014.0
20260509135954 66 187 2.6 3.5 0.00 0.00 0.00 70 1014.3
20260509135451 66 137 1.7 2.6 0.00 0.00 0.00 71 1014.1
20260509134948 65 169 0.0 0.9 0.00 0.00 0.00 73 1014.5
20260509134446 64 143 0.0 0.9 0.00 0.00 0.00 74 1014.4
20260509133943 64 127 0.9 1.7 0.00 0.00 0.00 74 1014.7
20260509133439 64 174 0.9 5.2 0.00 0.00 0.00 73 1014.7
20260509132938 64 191 0.9 6.1 0.00 0.00 0.00 74 1014.8
20260509132436 64 161 0.9 1.7 0.00 0.00 0.00 74 1014.7
20260509131932 64 144 0.9 1.7 0.00 0.00 0.00 74 1014.8
20260509131430 65 128 1.7 2.6 0.00 0.00 0.00 73 1014.7
20260509130926 64 149 0.0 1.7 0.00 0.00 0.00 74 1014.5
20260509130421 64 151 0.9 2.6 0.00 0.00 0.00 74 1014.6
20260509125919 64 176 0.9 1.7 0.00 0.00 0.00 75 1014.5
20260509125415 63 117 0.9 0.9 0.00 0.00 0.00 76 1014.4
20260509124911 62 153 0.0 0.0 0.00 0.00 0.00 77 1014.3
20260509124409 62 241 1.7 2.6 0.00 0.00 0.00 77 1014.5
20260509123906 62 137 0.9 2.6 0.00 0.00 0.00 78 1014.6
20260509123403 61 145 0.9 0.9 0.00 0.00 0.00 78 1014.7
20260509122859 61 174 0.9 1.7 0.00 0.00 0.00 78 1014.6
20260509122356 61 141 0.9 1.7 0.00 0.00 0.00 80 1014.6
20260509121852 61 186 0.0 0.9 0.00 0.00 0.00 81 1014.6
20260509121350 59 140 0.0 0.9 0.00 0.00 0.00 83 1015.0
20260509120848 59 168 0.0 1.7 0.00 0.00 0.00 84 1014.8
20260509120345 58 183 1.7 2.6 0.00 0.00 0.00 84 1014.9
20260509115843 58 158 0.0 2.6 0.00 0.00 0.00 85 1014.7
20260509115340 57 175 0.0 1.7 0.00 0.00 0.00 85 1014.8
20260509114838 57 192 1.7 1.7 0.00 0.00 0.00 87 1014.8
20260509114336 56 172 0.0 0.0 0.00 0.00 0.00 87 1014.6
20260509113835 56 183 0.0 1.7 0.00 0.00 0.00 88 1014.6
20260509113332 56 156 0.0 0.0 0.00 0.00 0.00 88 1014.6
20260509112829 55 150 0.0 1.7 0.00 0.00 0.00 89 1014.6
20260509112326 55 154 0.0 0.0 0.00 0.00 0.00 90 1014.4
20260509111823 54 165 0.9 0.9 0.00 0.00 0.00 90 1014.7
20260509111320 54 152 0.0 0.0 0.00 0.00 0.00 90 1014.7
20260509110818 54 155 0.0 0.0 0.00 0.00 0.00 90 1014.6
20260509110313 54 151 0.0 0.0 0.00 0.00 0.00 90 1014.4
20260509105812 54 137 0.9 0.9 0.00 0.00 0.00 91 1014.6
20260509105310 53 145 0.0 2.6 0.00 0.00 0.00 91 1014.6
20260509104806 53 159 0.9 1.7 0.00 0.00 0.00 91 1014.6
20260509104303 53 152 0.0 0.9 0.00 0.00 0.00 92 1014.6
20260509103801 52 155 0.0 0.0 0.00 0.00 0.00 93 1014.5
20260509103258 52 154 0.0 0.0 0.00 0.00 0.00 93 1014.4
20260509102756 51 151 0.0 0.0 0.00 0.00 0.00 94 1014.5
20260509102253 51 148 0.0 0.0 0.00 0.00 0.00 94 1014.3
20260509101749 51 151 0.0 0.0 0.00 0.00 0.00 93 1014.4
20260509101245 51 150 0.0 0.0 0.00 0.00 0.00 93 1014.3
20260509100743 51 136 0.0 0.0 0.00 0.00 0.00 93 1014.3
20260509100240 51 136 0.0 0.0 0.00 0.00 0.00 93 1014.6
20260509095736 51 141 0.0 0.0 0.00 0.00 0.00 92 1014.4
20260509095234 51 160 0.9 0.9 0.00 0.00 0.00 92 1014.4
20260509094731 51 136 0.0 0.0 0.00 0.00 0.00 91 1014.4
20260509094228 51 134 0.0 0.0 0.00 0.00 0.00 91 1014.4
20260509093726 52 127 0.0 0.0 0.00 0.00 0.00 91 1014.5
20260509093223 52 136 0.0 0.0 0.00 0.00 0.00 90 1014.4
20260509092721 52 144 0.0 0.0 0.00 0.00 0.00 89 1014.6
20260509092219 52 136 0.0 0.0 0.00 0.00 0.00 89 1014.9
20260509091717 53 151 0.0 0.0 0.00 0.00 0.00 88 1014.6
20260509091212 53 135 0.0 0.9 0.00 0.00 0.00 87 1014.7
20260509090710 53 150 0.0 0.0 0.00 0.00 0.00 87 1014.5
20260509090207 53 173 0.0 0.0 0.00 0.00 0.00 87 1014.6
20260509085705 53 138 0.0 0.0 0.00 0.00 0.00 87 1014.6
20260509085201 53 136 0.0 0.0 0.00 0.00 0.00 87 1014.5
20260509084658 53 139 0.0 0.9 0.00 0.00 0.00 87 1014.4
20260509084155 53 136 0.0 0.9 0.00 0.00 0.00 87 1014.4
20260509083653 52 141 0.0 0.0 0.00 0.00 0.00 87 1014.3
20260509083149 52 141 0.0 0.0 0.00 0.00 0.00 86 1014.5
20260509082646 52 150 0.0 0.0 0.00 0.00 0.00 86 1014.4
20260509082143 52 127 0.0 0.0 0.00 0.00 0.00 86 1014.3
20260509081640 52 152 0.0 0.0 0.00 0.00 0.00 86 1014.2
20260509081137 52 133 0.0 0.0 0.00 0.00 0.00 85 1014.2
20260509080635 53 134 0.0 0.0 0.00 0.00 0.00 84 1014.4
20260509080133 53 131 0.0 0.0 0.00 0.00 0.00 83 1014.3
20260509075631 53 141 0.0 0.0 0.00 0.00 0.00 82 1014.5
20260509075128 54 134 0.0 0.0 0.00 0.00 0.00 81 1014.5
20260509074625 55 136 0.0 0.0 0.00 0.00 0.00 80 1014.7
20260509074121 55 136 0.0 0.0 0.00 0.00 0.00 79 1014.6
20260509073618 55 150 0.0 0.0 0.00 0.00 0.00 79 1014.8
20260509073114 55 154 0.0 0.0 0.00 0.00 0.00 79 1014.8
20260509072611 56 141 0.0 0.0 0.00 0.00 0.00 78 1014.6
20260509072108 57 149 0.0 0.0 0.00 0.00 0.00 76 1014.6
20260509071604 57 127 0.0 0.9 0.00 0.00 0.00 75 1014.6
20260509071102 57 122 0.0 1.7 0.00 0.00 0.00 75 1014.7
20260509070559 56 131 0.9 2.6 0.00 0.00 0.00 76 1014.3
20260509070055 56 151 0.0 0.9 0.00 0.00 0.00 76 1014.5
20260509065551 55 149 0.0 0.0 0.00 0.00 0.00 77 1014.7
20260509065047 56 196 0.9 0.9 0.00 0.00 0.00 77 1014.7
20260509064545 56 136 0.0 1.7 0.00 0.00 0.00 77 1014.7
20260509064043 56 159 0.0 0.0 0.00 0.00 0.00 76 1015.0
20260509063538 56 171 0.0 0.9 0.00 0.00 0.00 76 1014.9
20260509063036 56 150 0.9 1.7 0.00 0.00 0.00 76 1015.2
20260509062533 56 182 0.0 1.7 0.00 0.00 0.00 76 1015.3
20260509062030 56 195 0.9 1.7 0.00 0.00 0.00 76 1015.5
20260509061527 56 152 0.0 0.9 0.00 0.00 0.00 75 1015.4
20260509061024 56 173 0.9 2.6 0.00 0.00 0.00 74 1015.6
20260509060522 55 164 0.9 0.9 0.00 0.00 0.00 76 1015.7
20260509060017 56 153 0.0 0.9 0.00 0.00 0.00 74 1015.7
20260509055513 55 161 0.0 0.0 0.00 0.00 0.00 74 1015.6
20260509055009 55 141 0.9 1.7 0.00 0.00 0.00 73 1015.6
20260509054506 56 166 0.0 0.9 0.00 0.00 0.00 72 1015.6
20260509054004 55 135 0.0 0.9 0.00 0.00 0.00 73 1015.6
20260509053502 55 141 0.0 0.9 0.00 0.00 0.00 72 1015.6
20260509052959 55 151 0.0 0.0 0.00 0.00 0.00 72 1015.8
20260509052456 55 154 0.0 0.9 0.00 0.00 0.00 71 1015.5
20260509051954 55 144 0.0 0.0 0.00 0.00 0.00 71 1015.4
20260509051452 55 154 0.0 0.0 0.00 0.00 0.00 71 1015.4
20260509050949 55 154 0.0 0.0 0.00 0.00 0.00 71 1015.3
20260509050445 54 151 0.0 0.9 0.00 0.00 0.00 71 1015.6
20260509045942 54 152 0.0 0.0 0.00 0.00 0.00 72 1015.3
20260509045439 53 153 0.0 0.0 0.00 0.00 0.00 72 1015.4
20260509044936 54 149 0.0 0.0 0.00 0.00 0.00 72 1015.3
20260509044434 54 150 0.0 0.0 0.00 0.00 0.00 72 1015.2